Location: Waldport
(44.4270°N, 124.0680°W)
Time: 10:30:50
(UTC-07:00)

Amateur Radio Satellites - All Passes

Search period start: 25 May 2015 10:00
Search period end: 26 May 2015 10:00
Location: Waldport, 44.4270°N, 124.0680°W

Satellite Date Start Highest point End Downlink Frequencies (MHz)
Time Altitude Azimuth
CANX-2 25 May 10:03:57 10:08:12 85° 102° (ESE) 10:12:24 2200.000
QB50P2 25 May 10:04:14 10:05:38 12° 61° (ENE) 10:07:15 145.880/145.840
CUTE 1.7 + AOD 2 25 May 10:07:48 10:12:03 84° 103° (ESE) 10:16:15 437.475
DELFI C3 25 May 10:09:00 10:11:27 16° 90° (E) 10:14:02 145.870
Oscar 11 25 May 10:09:04 10:12:29 23° 93° (E) 10:15:59 145.826/435.025
CINEMA 3 25 May 10:14:08 10:18:48 49° 98° (E) 10:23:15 145.822/145.860
TIGRISAT 25 May 10:14:31 10:18:36 31° 68° (ENE) 10:22:43 435.000
POPSAT HIP 1 25 May 10:15:55 10:18:17 15° 63° (ENE) 10:20:49 437.405
DUCHIFAT 1 25 May 10:19:16 10:21:45 16° 63° (ENE) 10:24:24 145.980
DOVE 4 25 May 10:22:13 10:27:27 73° 285° (WNW) 10:32:22 437.250
Cosmos 2504 25 May 10:23:21 10:31:14 49° 91° (E) 10:38:41 435.465 / 435.565
PCSat 25 May 10:26:00 10:31:17 50° 52° (NE) 10:36:33 145.827
UWE-3 25 May 10:33:18 10:37:13 30° 95° (E) 10:41:04 435.000/436.395/437.385
SEEDS 25 May 10:33:27 10:37:37 61° 285° (WNW) 10:41:43 437.485
UNISAT 6 25 May 10:33:38 10:38:09 48° 72° (ENE) 10:42:39 437.425
BRITE-PL 25 May 10:38:37 10:43:27 28° 295° (WNW) 10:48:03 437.365/2234.400
FUNcube-1 25 May 10:48:19 10:52:16 34° 95° (E) 10:56:09 145.935
COMPASS 1 25 May 10:49:47 10:53:49 50° 287° (WNW) 10:57:49 437.405
BUGSAT 1 25 May 10:49:56 10:53:06 22° 66° (ENE) 10:56:23 437.445
GOMX 1 25 May 10:50:40 10:55:24 30° 294° (WNW) 10:59:54 467.674
SO-50 25 May 10:54:15 10:57:00 15° 29° (NNE) 10:59:51 436.795
QB50P1 25 May 10:58:20 11:02:17 39° 71° (ENE) 11:06:19 145.935-145.965
POLYITAN 1 25 May 10:59:13 11:03:15 40° 71° (ENE) 11:07:20 437.675
RS-15 25 May 11:02:51 11:13:46 73° 310° (NW) 11:25:03 29.354- 29.394
AAUSAT CUBESAT 2 25 May 11:03:37 11:07:31 41° 289° (WNW) 11:11:24 437.432
ANTELSAT 25 May 11:16:46 11:21:26 64° 259° (W) 11:26:05 437.575/2403.000
CUBEBUG 2 25 May 11:18:09 11:22:42 72° 284° (WNW) 11:27:02 437.445
50 SAT 25 May 11:23:57 11:26:53 21° 93° (E) 11:29:52 437.505
HO-68 25 May 11:26:55 11:33:24 37° 298° (WNW) 11:39:46 435.675
ZACube-1 25 May 11:27:48 11:32:13 88° 284° (WNW) 11:36:28 437.345
NANOSAT C BR1 25 May 11:30:01 11:34:17 84° 75° (ENE) 11:38:37 145.865
UKube-1 25 May 11:33:28 11:37:41 46° 100° (E) 11:41:52 .
QB50P2 25 May 11:36:40 11:40:58 80° 257° (WSW) 11:45:18 145.880/145.840
HUMSAT D 25 May 11:36:49 11:40:56 53° 99° (E) 11:44:58 437.325/437.525
DX 1 25 May 11:39:26 11:43:47 58° 100° (E) 11:48:07 434.975-435.025
CANX-2 25 May 11:42:35 11:43:32 11° 299° (WNW) 11:44:16 2200.000
ESTCUBE 1 25 May 11:42:55 11:46:13 20° 91° (E) 11:49:39 437.505/2401.250
DELFI C3 25 May 11:43:00 11:46:50 43° 288° (WNW) 11:50:38 145.870
Oscar 11 25 May 11:44:51 11:48:46 34° 290° (WNW) 11:52:38 145.826/435.025
CUTE 1.7 + AOD 2 25 May 11:46:23 11:47:22 11° 299° (WNW) 11:48:09 437.475
VELOX 1 25 May 11:46:40 11:50:48 35° 97° (E) 11:54:55 145.980
POPSAT HIP 1 25 May 11:49:29 11:53:43 60° 259° (W) 11:58:00 437.405
CUBEBUG 1 25 May 11:50:37 11:53:57 21° 92° (E) 11:57:23 437.445
TIGRISAT 25 May 11:51:08 11:55:19 31° 265° (W) 11:59:26 435.000
CINEMA 3 25 May 11:52:04 11:55:39 21° 296° (WNW) 11:59:01 145.822/145.860
DUCHIFAT 1 25 May 11:52:58 11:57:10 56° 260° (W) 12:01:25 145.980
DOVE 4 25 May 12:02:44 12:04:17 11° 303° (WNW) 12:05:33 437.250
Oscar 19 25 May 12:05:35 12:06:42 11° 56° (NE) 12:08:05 437.125/150
UWE-3 25 May 12:09:55 12:13:41 27° 293° (WNW) 12:17:18 435.000/436.395/437.385
PCSat 25 May 12:09:57 12:14:27 26° 250° (WSW) 12:18:50 145.827
UNISAT 6 25 May 12:11:44 12:15:12 19° 269° (W) 12:18:31 437.425
Cosmos 2504 25 May 12:17:11 12:24:50 38° 290° (WNW) 12:31:57 435.465 / 435.565
AISAT 25 May 12:17:25 12:21:56 77° 103° (ESE) 12:26:25 437.250
BUGSAT 1 25 May 12:24:33 12:28:23 35° 263° (W) 12:32:16 437.445
FUNcube-1 25 May 12:24:55 12:28:28 24° 293° (WNW) 12:31:52 145.935
GONETS M04 25 May 12:29:10 12:34:52 20° 79° (ENE) 12:41:02
SO-50 25 May 12:33:40 12:38:36 60° 51° (NE) 12:43:29 436.795
DANDE 25 May 12:34:08 12:38:44 19° 78° (ENE) 12:44:09 436.750
QB50P1 25 May 12:35:04 12:38:20 20° 268° (W) 12:41:31 145.935-145.965
POLYITAN 1 25 May 12:36:07 12:39:21 20° 268° (W) 12:42:30 437.675
SPROUT 25 May 12:36:35 12:39:33 18° 91° (E) 12:42:37 437.525
50 SAT 25 May 12:58:12 13:01:41 31° 290° (WNW) 13:05:05 437.505
TISAT 1 25 May 13:06:19 13:09:56 27° 94° (E) 13:13:36 437.305
ZACube-1 25 May 13:07:17 13:07:53 10° 300° (WNW) 13:08:15 437.345
UKube-1 25 May 13:10:23 13:13:31 19° 296° (WNW) 13:16:31 .
HUMSAT D 25 May 13:13:45 13:16:17 15° 296° (WNW) 13:18:41 437.325/437.525
CUSAT 1 25 May 13:14:26 13:21:14 46° 90° (E) 13:29:02 437.405
DX 1 25 May 13:16:51 13:19:38 16° 297° (WNW) 13:22:14 434.975-435.025
RS-15 25 May 13:18:58 13:28:34 32° 340° (NNW) 13:38:22 29.354- 29.394
ESTCUBE 1 25 May 13:19:01 13:23:20 43° 289° (WNW) 13:27:37 437.505/2401.250
VELOX 1 25 May 13:23:30 13:27:12 25° 294° (WNW) 13:30:50 145.980
CUBEBUG 1 25 May 13:26:19 13:30:31 40° 289° (WNW) 13:34:39 437.445
Oscar 19 25 May 13:40:03 13:45:13 70° 74° (ENE) 13:50:26 437.125/150
ITAMSAT 1 25 May 13:51:17 13:55:38 29° 65° (ENE) 14:00:05 435.822/435.867
AISAT 25 May 13:55:48 13:57:59 13° 299° (WNW) 13:59:58 437.250
SPROUT 25 May 14:11:44 14:15:54 44° 288° (WNW) 14:20:00 437.525
DANDE 25 May 14:13:38 14:20:42 86° 99° (E) 14:29:12 436.750
SO-50 25 May 14:15:07 14:18:47 20° 248° (WSW) 14:22:16 436.795
Gurwin Techsat 1B 25 May 14:18:26 14:23:28 46° 70° (ENE) 14:28:33 435.225
AO-7 25 May 14:20:07 14:25:51 22° 49° (NE) 14:31:52 29.400- 29.500
GONETS M04 25 May 14:21:49 14:30:41 88° 278° (W) 14:39:36
JAS-2 25 May 14:22:29 14:25:25 14° 58° (ENE) 14:28:29 435.910
TISAT 1 25 May 14:41:57 14:45:43 29° 291° (WNW) 14:49:23 437.305
ITUPSAT 1 25 May 14:45:17 14:49:54 47° 99° (E) 14:54:32 437.325
BEESAT 25 May 14:54:01 14:58:44 59° 101° (E) 15:03:27 436.000
CUSAT 1 25 May 14:56:57 15:04:02 44° 292° (WNW) 15:11:52 437.405
Cosmos 2499 25 May 14:58:17 15:05:09 33° 87° (E) 15:11:46 435.465 / 435.565
SWISSCUBE 25 May 15:02:13 15:07:01 77° 103° (ESE) 15:11:48 437.505
HORYU 2 25 May 15:17:02 15:20:49 28° 67° (ENE) 15:24:42 437.375
Oscar 19 25 May 15:21:59 15:25:11 16° 272° (W) 15:28:10 437.125/150
KKS-1 25 May 15:24:51 15:28:22 23° 93° (E) 15:31:57 437.445
ITAMSAT 1 25 May 15:30:10 15:35:01 39° 263° (W) 15:39:52 435.822/435.867
RS-15 25 May 15:36:06 15:45:28 29° 14° (NNE) 15:55:18 29.354- 29.394
O/OREOS (USA 219) 25 May 15:42:51 15:45:57 19° 102° (ESE) 15:49:12 437.305
DANDE 25 May 15:59:15 16:05:15 24° 303° (WNW) 16:11:39 436.750
Gurwin Techsat 1B 25 May 15:59:20 16:03:42 25° 268° (W) 16:07:59 435.225
JAS-2 25 May 16:03:08 16:09:53 76° 74° (ENE) 16:15:50 435.910
AO-7 25 May 16:09:18 16:17:35 82° 70° (ENE) 16:25:57 29.400- 29.500
GONETS M04 25 May 16:22:32 16:29:03 21° 302° (WNW) 16:35:14
ITUPSAT 1 25 May 16:23:51 16:27:32 22° 296° (WNW) 16:31:06 437.325
STARS 25 May 16:32:24 16:36:51 72° 102° (ESE) 16:41:15 437.465
BEESAT 25 May 16:32:55 16:36:11 18° 298° (WNW) 16:39:18 436.000
SWISSCUBE 25 May 16:41:42 16:44:19 14° 300° (WNW) 16:46:45 437.505
MOZHAYETS 4 25 May 16:43:23 16:45:30 13° 87° (E) 16:47:51
CUSAT 1 25 May 16:47:26 16:49:22 11° 315° (NW) 16:50:48 437.405
Cosmos 2499 25 May 16:50:06 16:58:04 54° 285° (WNW) 17:05:25 435.465 / 435.565
HORYU 2 25 May 16:53:24 16:57:25 31° 264° (W) 17:01:24 437.375
KKS-1 25 May 17:00:59 17:05:09 38° 290° (WNW) 17:09:16 437.445
O/OREOS (USA 219) 25 May 17:20:43 17:25:05 46° 299° (WNW) 17:29:26 437.305
CUTE-I 25 May 17:32:10 17:36:13 23° 63° (ENE) 17:40:25 437.470
RS-15 25 May 17:49:41 18:01:01 59° 44° (NE) 18:12:53 29.354- 29.394
JAS-2 25 May 17:50:58 17:55:32 18° 270° (W) 17:59:31 435.910
Cubesat XI-IV 25 May 17:51:32 17:56:13 34° 67° (ENE) 18:01:00 437.490
AO-7 25 May 18:05:06 18:11:27 23° 271° (W) 18:17:29 29.400- 29.500
YUBILEINY 25 May 18:05:50 18:13:06 29° 64° (ENE) 18:20:33 435.215
STARS 25 May 18:10:30 18:12:46 14° 299° (WNW) 18:14:52 437.465
Cosmos 2491 25 May 18:16:14 18:19:36 13° 74° (ENE) 18:23:37 435.465 / 435.565
CUBESAT XI-V 25 May 18:18:36 18:19:50 11° 86° (E) 18:21:21 437.345
MOZHAYETS 4 25 May 18:18:44 18:23:16 66° 286° (WNW) 18:27:48
BEESAT 3 25 May 18:33:46 18:37:19 30° 116° (ESE) 18:40:58 437.485
STRAND 1 25 May 19:00:44 19:02:59 13° 87° (E) 19:05:31 437.568
AIST 2 25 May 19:02:25 19:04:51 15° 111° (ESE) 19:07:26 435.215
CUTE-I 25 May 19:10:49 19:16:00 52° 260° (W) 19:21:13 437.470
BEESAT 2 25 May 19:19:56 19:24:02 74° 122° (ESE) 19:28:11 435.950
Cubesat XI-IV 25 May 19:31:28 19:36:19 35° 264° (W) 19:41:09 437.490
DOVE 4 25 May 19:52:52 19:56:27 20° 63° (ENE) 20:00:16 437.250
CUBESAT XI-V 25 May 19:53:16 19:57:59 83° 284° (WNW) 20:02:42 437.345
SEEDS 25 May 19:54:04 19:55:41 12° 62° (ENE) 19:57:29 437.485
YUBILEINY 25 May 20:02:07 20:10:44 67° 267° (W) 20:19:17 435.215
RS-15 25 May 20:02:26 20:13:29 50° 247° (WSW) 20:24:47 29.354- 29.394
Cosmos 2491 25 May 20:06:16 20:14:56 68° 94° (E) 20:23:43 435.465 / 435.565
COMPASS 1 25 May 20:09:00 20:11:08 14° 64° (ENE) 20:13:25 437.405
HO-68 25 May 20:09:09 20:15:47 43° 64° (ENE) 20:22:30 435.675
BEESAT 3 25 May 20:11:35 20:15:17 31° 314° (NW) 20:18:59 437.485
BRITE-PL 25 May 20:11:39 20:16:38 59° 73° (ENE) 20:22:03 437.365/2234.400
Cosmos 2504 25 May 20:14:59 20:19:15 17° 58° (ENE) 20:23:48 435.465 / 435.565
PRISM 25 May 20:16:43 20:20:53 81° 103° (ESE) 20:25:04 437.425
GOMX 1 25 May 20:21:25 20:26:20 49° 71° (ENE) 20:31:34 467.674
AAUSAT CUBESAT 2 25 May 20:21:52 20:24:26 16° 65° (ENE) 20:27:06 437.432
STRAND 1 25 May 20:37:46 20:42:55 81° 287° (WNW) 20:48:05 437.568
AIST 2 25 May 20:38:45 20:43:00 62° 307° (NW) 20:47:16 435.215
M-CUBED/EXP-1 PRIME 25 May 20:40:38 20:43:53 48° 105° (ESE) 20:47:05 437.505
CUBEBUG 2 25 May 20:43:16 20:45:51 15° 62° (ENE) 20:48:37 437.445
AUBIESAT-1 25 May 20:50:06 20:53:23 55° 107° (ESE) 20:56:37 437.475
ZACube-1 25 May 20:52:16 20:53:37 11° 60° (ENE) 20:55:12 437.345
CANX-2 25 May 20:58:11 21:02:26 74° 76° (ENE) 21:06:43 2200.000
DELFI C3 25 May 20:58:52 21:00:51 14° 64° (ENE) 21:02:58 145.870
BEESAT 2 25 May 20:59:48 21:02:37 17° 323° (NW) 21:05:23 435.950
CUTE 1.7 + AOD 2 25 May 21:01:58 21:06:13 74° 75° (ENE) 21:10:28 437.475
Oscar 11 25 May 21:05:39 21:09:02 23° 67° (ENE) 21:12:32 145.826/435.025
AIST 1 25 May 21:15:09 21:19:18 54° 95° (E) 21:23:30
CINEMA 3 25 May 21:16:41 21:21:32 55° 72° (ENE) 21:26:29 145.822/145.860
SEEDS 25 May 21:26:45 21:30:58 73° 258° (WSW) 21:35:12 437.485
DOVE 4 25 May 21:28:39 21:33:43 63° 260° (W) 21:39:00 437.250
UWE-3 25 May 21:31:38 21:35:48 33° 69° (ENE) 21:40:01 435.000/436.395/437.385
CUBESAT XI-V 25 May 21:33:27 21:34:44 11° 301° (WNW) 21:35:47 437.345
COMPASS 1 25 May 21:42:14 21:46:23 60° 260° (W) 21:50:33 437.405
AISAT 25 May 21:44:34 21:45:08 10° 59° (ENE) 21:45:56 437.250
FUNcube-1 25 May 21:45:17 21:49:27 35° 70° (ENE) 21:53:37 145.935
BRITE-PL 25 May 21:51:57 21:55:41 19° 273° (W) 21:59:25 437.365/2234.400
PRISM 25 May 21:54:36 21:55:47 11° 299° (WNW) 21:56:46 437.425
AAUSAT CUBESAT 2 25 May 21:55:38 21:59:42 49° 261° (W) 22:03:46 437.432
HO-68 25 May 21:56:50 22:03:35 41° 263° (W) 22:10:16 435.675
GOMX 1 25 May 22:00:36 22:04:46 24° 270° (W) 22:09:00 467.674
YUBILEINY 25 May 22:02:26 22:06:01 13° 286° (WNW) 22:08:59 435.215
Cosmos 2491 25 May 22:05:08 22:12:40 29° 296° (WNW) 22:20:02 435.465 / 435.565
Cosmos 2504 25 May 22:06:42 22:13:59 88° 81° (E) 22:21:12 435.465 / 435.565
50 SAT 25 May 22:10:46 22:13:20 17° 66° (ENE) 22:16:00 437.505
M-CUBED/EXP-1 PRIME 25 May 22:17:14 22:18:24 11° 302° (WNW) 22:19:27 437.505
CUBEBUG 2 25 May 22:17:15 22:22:01 73° 258° (WSW) 22:26:49 437.445
STRAND 1 25 May 22:19:15 22:21:24 12° 303° (WNW) 22:23:19 437.568
AIST 2 25 May 22:20:35 22:22:29 12° 329° (NNW) 22:24:16 435.215
ZACube-1 25 May 22:24:44 22:29:21 88° 69° (ENE) 22:33:57 437.345
AUBIESAT-1 25 May 22:27:15 22:27:47 10° 303° (WNW) 22:28:10 437.475
UKube-1 25 May 22:29:46 22:33:55 49° 72° (ENE) 22:38:08 .
HUMSAT D 25 May 22:29:52 22:34:01 47° 72° (ENE) 22:38:11 437.325/437.525
DELFI C3 25 May 22:31:34 22:35:33 57° 260° (W) 22:39:31 145.870
DX 1 25 May 22:36:27 22:40:44 62° 73° (ENE) 22:45:04 434.975-435.025
GONETS M04 25 May 22:37:21 22:39:04 11° 46° (NE) 22:41:26
CANX-2 25 May 22:37:54 22:38:58 11° 274° (W) 22:39:47 2200.000
Oscar 11 25 May 22:41:04 22:45:04 35° 264° (W) 22:49:04 145.826/435.025
CUTE 1.7 + AOD 2 25 May 22:41:37 22:42:43 11° 274° (W) 22:43:34 437.475
ESTCUBE 1 25 May 22:44:20 22:47:50 23° 66° (ENE) 22:51:26 437.505/2401.250
VELOX 1 25 May 22:45:49 22:49:55 39° 70° (ENE) 22:54:05 145.980
CUBEBUG 1 25 May 22:48:37 22:51:56 22° 66° (ENE) 22:55:22 437.445
AIST 1 25 May 22:54:58 22:57:24 14° 294° (WNW) 22:59:41
CINEMA 3 25 May 22:55:29 22:59:07 19° 271° (W) 23:02:37 145.822/145.860
ANTELSAT 25 May 23:07:56 23:11:24 23° 93° (E) 23:14:54 437.575/2403.000
UWE-3 25 May 23:08:16 23:12:21 28° 266° (W) 23:16:22 435.000/436.395/437.385
DANDE 25 May 23:12:43 23:18:05 19° 53° (NE) 23:23:11 436.750
NANOSAT C BR1 25 May 23:15:19 23:16:57 12° 88° (E) 23:18:49 145.865
AISAT 25 May 23:16:35 23:21:02 84° 75° (ENE) 23:25:32 437.250
QB50P2 25 May 23:21:45 23:24:10 15° 89° (E) 23:26:45 145.880/145.840
FUNcube-1 25 May 23:21:57 23:25:49 26° 267° (W) 23:29:38 145.935
SPROUT 25 May 23:32:42 23:35:38 19° 65° (ENE) 23:38:43 437.525
POPSAT HIP 1 25 May 23:33:49 23:36:55 20° 92° (E) 23:40:07 437.405
DUCHIFAT 1 25 May 23:36:44 23:39:55 21° 92° (E) 23:43:10 145.980
TIGRISAT 25 May 23:40:49 23:45:07 49° 99° (E) 23:49:19 435.000
50 SAT 25 May 23:43:54 23:47:45 43° 261° (W) 23:51:35 437.505
CUSAT 1 25 May 23:52:12 23:59:09 38° 66° (ENE) 00:04:51 437.405
TISAT 1 26 May 00:00:12 00:03:41 26° 67° (ENE) 00:07:16 437.305
UNISAT 6 26 May 00:00:38 00:05:05 83° 103° (ESE) 00:09:24 437.425
Cosmos 2504 26 May 00:02:08 00:06:25 16° 281° (W) 00:10:18 435.465 / 435.565
BUGSAT 1 26 May 00:05:02 00:08:45 29° 95° (E) 00:12:29 437.445
HUMSAT D 26 May 00:07:07 00:10:03 17° 270° (W) 00:12:50 437.325/437.525
UKube-1 26 May 00:07:31 00:10:23 17° 269° (W) 00:13:07 .
ISS 26 May 00:11:04 00:13:47 25° 138° (SE) 00:16:33 145.825
DX 1 26 May 00:15:14 00:17:28 13° 271° (W) 00:19:31 434.975-435.025
QB50P1 26 May 00:17:14 00:21:28 57° 100° (E) 00:25:41 145.935-145.965
POLYITAN 1 26 May 00:18:32 00:22:49 60° 101° (E) 00:27:02 437.675
ESTCUBE 1 26 May 00:20:21 00:24:32 38° 263° (W) 00:28:43 437.505/2401.250
VELOX 1 26 May 00:23:09 00:26:39 22° 268° (W) 00:30:03 145.980
CUBEBUG 1 26 May 00:24:00 00:28:05 38° 263° (W) 00:32:13 437.445
BEESAT 26 May 00:28:30 00:29:38 11° 58° (ENE) 00:31:00 436.000
GONETS M04 26 May 00:30:16 00:38:48 51° 73° (ENE) 00:47:16
SWISSCUBE 26 May 00:35:29 00:37:48 14° 60° (ENE) 00:40:19 437.505
ANTELSAT 26 May 00:44:17 00:48:19 35° 291° (WNW) 00:52:14 437.575/2403.000
NANOSAT C BR1 26 May 00:49:03 00:53:19 65° 286° (WNW) 00:57:32 145.865
Cosmos 2499 26 May 00:50:35 00:50:41 10° 52° (NE) 00:51:17 435.465 / 435.565
DANDE 26 May 00:54:49 01:03:01 82° 78° (ENE) 01:09:33 436.750
QB50P2 26 May 00:56:15 01:00:27 52° 287° (WNW) 01:04:36 145.880/145.840
SPROUT 26 May 01:07:15 01:11:25 46° 261° (W) 01:15:37 437.525
POPSAT HIP 1 26 May 01:08:57 01:13:00 40° 289° (WNW) 01:16:58 437.405
PCSat 26 May 01:09:48 01:14:28 31° 111° (ESE) 01:19:15 145.827
DUCHIFAT 1 26 May 01:11:54 01:15:54 38° 290° (WNW) 01:19:49 145.980
TIGRISAT 26 May 01:18:29 01:21:32 18° 296° (WNW) 01:24:24 435.000
CUSAT 1 26 May 01:35:00 01:41:57 42° 271° (W) 01:47:27 437.405
TISAT 1 26 May 01:35:35 01:39:23 31° 264° (W) 01:43:10 437.305
UNISAT 6 26 May 01:39:40 01:41:15 12° 300° (WNW) 01:42:37 437.425
BUGSAT 1 26 May 01:40:29 01:44:11 28° 292° (WNW) 01:47:46 437.445
ISS 26 May 01:46:52 01:50:03 50° 335° (NNW) 01:53:15 145.825
O/OREOS (USA 219) 26 May 01:49:40 01:54:01 48° 62° (ENE) 01:58:21 437.305
Oscar 19 26 May 01:50:46 01:54:38 22° 91° (E) 01:58:36 437.125/150
ITUPSAT 1 26 May 01:53:38 01:58:20 66° 73° (ENE) 02:03:05 437.325
QB50P1 26 May 01:54:20 01:56:55 15° 297° (WNW) 01:59:22 145.935-145.965
POLYITAN 1 26 May 01:55:48 01:58:16 15° 297° (WNW) 02:00:35 437.675
BEESAT 2 26 May 02:01:00 02:03:00 13° 33° (NNE) 02:05:06 435.950
BEESAT 26 May 02:02:01 02:06:46 81° 74° (ENE) 02:11:33 436.000
SWISSCUBE 26 May 02:10:20 02:15:06 79° 256° (WSW) 02:19:53 437.505
KKS-1 26 May 02:24:38 02:28:20 26° 67° (ENE) 02:32:07 437.445
GONETS M04 26 May 02:27:32 02:35:28 38° 274° (W) 02:43:10
Gurwin Techsat 1B 26 May 02:34:07 02:37:11 16° 88° (E) 02:40:28 435.225
Cosmos 2499 26 May 02:38:52 02:45:51 59° 76° (ENE) 02:52:52 435.465 / 435.565
DANDE 26 May 02:39:32 02:45:08 21° 280° (W) 02:49:47 436.750
BEESAT 3 26 May 02:50:33 02:54:18 33° 46° (NE) 02:58:01 437.485
SO-50 26 May 02:52:33 02:54:22 12° 108° (ESE) 02:56:27 436.795
PCSat 26 May 02:52:37 02:57:46 43° 309° (NW) 03:02:57 145.827
VERMONT LUNAR 26 May 03:12:49 03:15:18 21° 160° (SSE) 03:17:48 437.305
AIST 2 26 May 03:21:07 03:24:22 21° 40° (NE) 03:27:38 435.215
ISS 26 May 03:24:18 03:26:59 23° 355° (N) 03:29:40 145.825
Oscar 19 26 May 03:29:19 03:34:20 51° 289° (WNW) 03:39:16 437.125/150
O/OREOS (USA 219) 26 May 03:30:02 03:33:06 18° 258° (WSW) 03:36:02 437.305
PHONESAT 2.4 26 May 03:30:12 03:31:28 12° 151° (SSE) 03:32:49 2401.200-2431.200
STARS 26 May 03:30:37 03:35:03 78° 75° (ENE) 03:39:32 437.465
ITUPSAT 1 26 May 03:34:03 03:36:46 15° 272° (W) 03:39:17 437.325
BEESAT 2 26 May 03:37:42 03:41:50 76° 54° (NE) 03:45:54 435.950
ITAMSAT 1 26 May 03:40:46 03:45:58 65° 101° (ESE) 03:51:10 435.822/435.867
BEESAT 26 May 03:43:31 03:45:19 12° 274° (W) 03:46:50 436.000
MOZHAYETS 4 26 May 03:47:01 03:49:50 17° 63° (ENE) 03:52:47
KKS-1 26 May 04:00:47 04:04:52 33° 264° (W) 04:08:56 437.445
AO-7 26 May 04:09:56 04:16:16 24° 90° (E) 04:22:52 29.400- 29.500
Gurwin Techsat 1B 26 May 04:12:29 04:17:48 72° 287° (WNW) 04:23:05 435.225
BEESAT 3 26 May 04:28:42 04:32:12 27° 245° (WSW) 04:35:35 437.485
SO-50 26 May 04:29:31 04:34:15 87° 310° (NW) 04:39:08 436.795
Cosmos 2499 26 May 04:32:54 04:38:32 25° 276° (W) 04:43:59 435.465 / 435.565
PCSat 26 May 04:40:58 04:42:46 11° 333° (NNW) 04:44:24 145.827
HORYU 2 26 May 04:42:27 04:46:41 43° 98° (E) 04:50:54 437.375
VERMONT LUNAR 26 May 04:49:04 04:52:06 39° 176° (S) 04:55:08 437.305
JAS-2 26 May 04:55:37 05:00:41 53° 100° (E) 05:05:52 435.910
AIST 2 26 May 04:59:07 05:03:17 55° 240° (WSW) 05:07:20 435.215
ISS 26 May 05:01:09 05:04:04 29° 15° (NNE) 05:07:00 145.825
PHONESAT 2.4 26 May 05:05:52 05:09:00 32° 166° (SSE) 05:12:08 2401.200-2431.200
STARS 26 May 05:10:48 05:12:09 11° 273° (W) 05:13:14 437.465
BEESAT 2 26 May 05:17:58 05:19:23 11° 250° (WSW) 05:20:35 435.950
ITAMSAT 1 26 May 05:21:22 05:25:02 19° 299° (WNW) 05:28:33 435.822/435.867
MOZHAYETS 4 26 May 05:22:08 05:26:39 58° 260° (W) 05:31:11
CUBESAT XI-V 26 May 05:23:28 05:25:49 14° 62° (ENE) 05:28:22 437.345
Gurwin Techsat 1B 26 May 05:55:13 05:56:57 11° 304° (NW) 05:58:25 435.225
M-CUBED/EXP-1 PRIME 26 May 05:58:38 05:59:41 11° 58° (ENE) 06:00:53 437.505
AO-7 26 May 06:01:38 06:10:01 79° 291° (WNW) 06:18:23 29.400- 29.500
AUBIESAT-1 26 May 06:07:21 06:08:43 12° 58° (ENE) 06:10:13 437.475
Cubesat XI-IV 26 May 06:09:27 06:10:36 11° 85° (E) 06:12:07 437.490
SO-50 26 May 06:12:10 06:15:33 18° 327° (NNW) 06:18:54 436.795
Cosmos 2491 26 May 06:14:48 06:22:48 37° 68° (ENE) 06:30:52 435.465 / 435.565
STRAND 1 26 May 06:17:37 06:21:35 24° 64° (ENE) 06:25:40 437.568
HORYU 2 26 May 06:19:44 06:23:05 21° 295° (WNW) 06:26:18 437.375
VERMONT LUNAR 26 May 06:26:06 06:29:00 31° 193° (SSW) 06:31:52 437.305
ISS 26 May 06:37:27 06:40:43 70° 212° (SSW) 06:43:57 145.825
JAS-2 26 May 06:41:41 06:45:33 21° 298° (WNW) 06:49:17 435.910
PHONESAT 2.4 26 May 06:43:28 06:46:48 43° 183° (S) 06:50:06 2401.200-2431.200
CUBESAT XI-V 26 May 06:58:10 07:02:45 71° 259° (W) 07:07:24 437.345
PRISM 26 May 07:08:14 07:12:18 74° 75° (ENE) 07:16:24 437.425
YUBILEINY 26 May 07:09:41 07:16:53 31° 84° (E) 07:24:18 435.215
AIST 1 26 May 07:21:19 07:24:11 17° 68° (ENE) 07:27:11
CUTE-I 26 May 07:25:59 07:31:15 55° 100° (E) 07:36:32 437.470
M-CUBED/EXP-1 PRIME 26 May 07:29:53 07:34:08 83° 252° (WSW) 07:38:04 437.505
AUBIESAT-1 26 May 07:38:56 07:43:08 75° 252° (WSW) 07:47:01 437.475
Cubesat XI-IV 26 May 07:46:16 07:51:40 83° 102° (ESE) 07:57:04 437.490
STRAND 1 26 May 07:55:37 08:00:32 47° 261° (W) 08:05:28 437.568
AO-7 26 May 07:55:48 08:01:42 21° 311° (NW) 08:07:20 29.400- 29.500
VERMONT LUNAR 26 May 08:04:27 08:05:38 12° 208° (SSW) 08:06:45 437.305
Cosmos 2491 26 May 08:11:32 08:20:03 54° 270° (W) 08:28:27 435.465 / 435.565
PCSat 26 May 08:14:22 08:15:21 10° 25° (NNE) 08:16:30 145.827
BRITE-PL 26 May 08:15:47 08:19:48 20° 88° (E) 08:23:54 437.365/2234.400
RS-15 26 May 08:18:40 08:26:35 25° 103° (ESE) 08:35:06 29.354- 29.394
PHONESAT 2.4 26 May 08:21:38 08:24:32 24° 199° (SSW) 08:27:23 2401.200-2431.200
GOMX 1 26 May 08:23:31 08:26:14 14° 85° (E) 08:29:09 467.674
CANX-2 26 May 08:44:13 08:45:23 11° 87° (E) 08:46:47 2200.000
CUTE 1.7 + AOD 2 26 May 08:47:58 08:49:03 11° 87° (E) 08:50:23 437.475
AIST 1 26 May 08:57:57 09:02:09 46° 266° (W) 09:06:21
Cosmos 2504 26 May 08:58:19 09:01:34 13° 78° (ENE) 09:05:17 435.465 / 435.565
YUBILEINY 26 May 09:04:34 09:13:15 62° 284° (WNW) 09:21:54 435.215
CUTE-I 26 May 09:06:50 09:11:00 23° 297° (WNW) 09:15:03 437.470
SEEDS 26 May 09:10:33 09:13:10 16° 90° (E) 09:15:54 437.485
CINEMA 3 26 May 09:12:42 09:14:13 12° 84° (E) 09:15:58 145.822/145.860
HO-68 26 May 09:22:14 09:28:43 37° 96° (E) 09:35:16 435.675
COMPASS 1 26 May 09:24:50 09:27:44 19° 91° (E) 09:30:45 437.405
DOVE 4 26 May 09:26:44 09:31:26 35° 94° (E) 09:35:57 437.250
UNISAT 6 26 May 09:27:41 09:29:12 12° 60° (ENE) 09:30:56 437.425
Cubesat XI-IV 26 May 09:27:55 09:31:10 16° 301° (WNW) 09:34:13 437.490
AAUSAT CUBESAT 2 26 May 09:37:25 09:40:37 22° 93° (E) 09:43:54 437.432
